This demonstration page uses our WeatherBlox Daily Observations layout. Learn more.

Left ArrowRight Arrow

39.92423, -83.80882

Hourly Observations for June 8, 2018

Temp ( °F °C ) Dew Point ( °F °C ) Humidity (%) Winds ( mph kmh ) Pressure ( in mb ) Visibility ( mi km ) Precip ( " mm )
12:56 am 00:56 Clear 69 20.6 63 17.2 81 81 SSE 8 13 30.08 1019 10 16 N/A
1:56 am 01:56 Clear 68 20 63 17.2 84 84 N N/A 30.07 1018 10 16 N/A
2:56 am 02:56 Clear 67 19.4 64 17.8 91 91 N N/A 30.09 1019 10 16 N/A
3:56 am 03:56 Clear 67 19.4 63 17.2 87 87 N 3 6 30.09 1019 10 16 N/A
4:56 am 04:56 Clear 67 19.4 64 17.8 91 91 N N/A 30.10 1019 10 16 N/A
5:56 am 05:56 Clear 64 17.8 63 17.2 96 96 N N/A 30.11 1020 10 16 N/A
6:56 am 06:56 Sunny 65 18.3 64 17.8 97 97 N N/A 30.13 1020 9 14 N/A
7:56 am 07:56 Sunny 69 20.6 66 18.9 90 90 undefined N/A 30.14 1021 10 16 N/A
8:56 am 08:56 Sunny 74 23.3 67 19.4 79 79 undefined N/A 30.15 1021 10 16 N/A
9:56 am 09:56 Sunny 78 25.6 67 19.4 69 69 WSW 6 9 30.16 1021 10 16 N/A
10:56 am 10:56 Sunny 79 26.1 66 18.9 65 65 W 8 13 30.15 1021 10 16 N/A
11:56 am 11:56 Sunny 82 27.8 68 20 63 63 WSW 7 11 30.14 1021 10 16 N/A
12:56 pm 12:56 Sunny 84 28.9 69 20.6 61 61 W 10 17 30.14 1021 10 16 N/A
1:56 pm 13:56 Sunny 84 28.9 68 20 59 59 W 10 17 30.12 1020 10 16 N/A
2:56 pm 14:56 Sunny 83 28.3 68 20 61 61 WSW 12 19 30.11 1020 10 16 N/A
3:56 pm 15:56 Sunny 85 29.4 68 20 57 57 W 8 13 30.10 1019 10 16 N/A
4:48 pm 16:48 Partly Cloudy with Nearby Thunderstorms 75 24 66 19 74 74 E 14 22 30.09 1019 10 16 N/A
4:56 pm 16:56 Partly Cloudy with Nearby Thunderstorms 76 24.4 67 19.4 74 74 E 16 26 30.12 1020 10 16 N/A
5:31 pm 17:31 Partly Cloudy with Nearby Thunderstorms 72 22 64 18 78 78 NE 20 31 30.12 1020 10 16 N/A
5:51 pm 17:51 Partly Cloudy with Strong Thunderstorms 70 21 66 19 88 88 NE 16 26 30.15 1021 3 4 0.22 5.59
5:56 pm 17:56 Partly Cloudy with Strong Thunderstorms 68 20 66 18.9 93 93 ENE 16 26 30.16 1021 2 3 0.40 10.16
5:59 pm 17:59 Partly Cloudy with Heavy Rain 68 20 66 19 94 94 E 18 30 30.12 1020 1 2 0.19 4.83
6:06 pm 18:06 Partly Cloudy with Strong Thunderstorms 66 19 66 19 100 100 E 16 26 30.12 1020 1 2 0.32 8.13
6:09 pm 18:09 Partly Cloudy with Thunderstorms 66 19 66 19 100 100 E 20 31 30.12 1020 2 3 0.32 8.13
6:17 pm 18:17 Partly Cloudy with Thunderstorms 66 19 66 19 100 100 ESE 13 20 30.12 1020 8 13 0.33 8.38
6:56 pm 18:56 Partly Cloudy with Nearby Thunderstorms 68 20 65 18.3 90 90 SSW 12 19 30.19 1023 10 16 0.34 8.64
7:56 pm 19:56 Partly Cloudy with Thunderstorms 66 18.9 64 17.8 93 93 E 12 19 30.18 1022 10 16 0.21 5.33
8:40 pm 20:40 Sunny 66 19 64 18 94 94 SE 15 24 30.12 1020 10 16 N/A
8:56 pm 20:56 Sunny 67 19.4 63 17.2 87 87 S 9 15 30.14 1021 10 16 N/A
9:56 pm 21:56 Clear 67 19.4 64 17.8 91 91 SSW 5 7 30.17 1022 10 16 N/A
10:56 pm 22:56 Clear 67 19.4 63 17.2 87 87 SSW 6 9 30.15 1021 10 16 N/A
11:56 pm 23:56 Clear 65 18.3 62 16.7 90 90 SSE 3 6 30.14 1021 10 16 N/A

Powered by AerisWeather